indice_tiempo,asalariados_priv_buenos_aires,asalariados_priv_caba,asalariados_priv_catamarca,asalariados_priv_chaco,asalariados_priv_chubut,asalariados_priv_cordoba,asalariados_priv_corrientes,asalariados_priv_entre_rios,asalariados_priv_formosa,asalariados_priv_jujuy,asalariados_priv_la_pampa,asalariados_priv_la_rioja,asalariados_priv_mendoza,asalariados_priv_misiones,asalariados_priv_neuquen,asalariados_priv_rio_negro,asalariados_priv_salta,asalariados_priv_san_juan,asalariados_priv_san_luis,asalariados_priv_santa_cruz,asalariados_priv_santa_fe,asalariados_priv_santiago_estero,asalariados_priv_tierra_fuego,asalariados_priv_tucuman
2009-01-01,1787.64,1469.941,29.789,59.917,93.274,457.589,63.403,118.24,20.594,50.544,35.412,25.573,224.357,82.01,92.927,109.325,100.327,73.954,52.385,54.735,459.325,41.929,27.006,129.765
2009-02-01,1769.223,1467.029,30.504,60.212,92.852,456.084,63.791,118.017,20.837,50.327,35.541,28.996,231.265,83.435,93.316,111.229,100.914,74.532,51.639,55.166,453.637,41.987,26.465,130.383
2009-03-01,1745.913,1466.167,31.819,61.331,93.235,454.039,64.836,119.666,20.947,47.76,35.636,29.18,236.927,84.734,91.581,107.136,100.215,76.425,51.528,54.718,454.632,42.328,26.185,137.924
2009-04-01,1729.917,1454.724,31.261,61.796,91.65,451.044,64.309,119.799,20.963,45.805,35.475,27.308,227.911,86.438,87.304,93.602,97.142,74.261,51.046,53.979,452.583,42.547,25.744,149.951
2009-05-01,1723.218,1451.374,30.366,62.265,90.353,447.114,64.257,120.941,21.13,47.167,35.15,26.521,212.276,88.024,85.173,88.599,98.239,72.668,50.783,52.941,449.091,42.505,25.276,155.374
2009-06-01,1724.903,1450.695,29.375,62.265,89.264,446.163,64.992,121.612,21.609,49.492,35.232,25.939,215.462,88.283,85.267,89.239,99.842,72.088,50.332,51.234,447.706,43.097,25.107,162.116
2009-07-01,1722.949,1449.348,29.089,62.264,88.65,446.14,64.575,122.489,22.313,50.319,35.198,25.969,213.988,88.975,85.401,88.032,99.951,71.68,50.556,50.625,446.595,43.663,24.886,163.247
2009-08-01,1720.649,1448.628,28.523,62.002,88.908,446.631,64.678,122.363,22.02,51.241,35.567,25.732,213.048,88.284,85.11,87.106,99.139,70.106,50.997,50.669,445.555,43.193,25.042,159.69
2009-09-01,1727.501,1452.493,28.72,61.676,89.537,449.047,65.074,121.936,22.088,53.246,35.967,25.561,211.971,86.813,84.909,86.928,102.08,69.243,51.413,51.678,450.313,43.211,25.93,156.098
2009-10-01,1741.995,1456.96,29.062,61.747,89.769,452.464,65.775,132.016,21.996,53.097,36.134,25.627,213.354,85.471,83.93,86.751,105.533,69.798,51.901,51.749,453.29,42.923,26.673,156.254
2009-11-01,1753.656,1460.733,30.409,59.276,89.856,452.886,67.017,134.412,22.025,53.37,35.962,25.654,216.515,84.388,85.439,90.478,105.094,70.905,53.136,51.813,455.457,42.592,27.307,148.528
2009-12-01,1774.175,1467.644,29.438,59.034,90.6,459.439,65.191,123.783,21.854,53.667,35.486,25.611,218.895,83.566,86.313,91.54,103.304,72.365,53.506,52.356,459.494,42.429,27.825,139.99
2010-01-01,1786.437,1460.384,28.648,58.776,89.811,464.615,64.282,119.571,21.543,53.224,35.226,25.997,222.76,82.879,87.525,106.049,104.113,72.827,53.598,53.048,455.259,42.381,27.228,130.273
2010-02-01,1782.964,1463.02,31.631,59.385,90.419,464.511,64.953,119.656,21.874,53.025,35.07,31.658,230.669,84.508,88.921,111.289,105.755,74.97,54.12,53.639,454.95,42.619,27.711,131.693
2010-03-01,1773.732,1473.082,32.15,59.391,91.136,466.362,65.954,123.099,22.083,50.191,35.107,33.213,237.992,86.424,89.176,109.062,105.815,75.691,54.258,53.871,459.452,43.53,28.225,134.876
2010-04-01,1769.101,1468.761,32.549,59.841,90.316,466.625,65.844,122.943,22.158,48.148,35.0,31.535,234.417,88.3,86.327,98.795,101.601,74.634,53.626,52.913,459.574,44.92,28.349,147.694
2010-05-01,1767.656,1468.964,32.403,59.879,89.547,465.929,65.832,123.646,22.186,48.825,34.548,29.505,219.958,88.636,84.661,90.87,102.35,72.864,53.224,51.974,459.008,45.216,28.644,155.712
2010-06-01,1771.643,1473.118,31.741,60.147,89.567,466.231,65.815,125.047,22.246,50.329,34.471,28.59,221.025,89.252,84.73,91.766,103.546,73.685,53.302,51.351,459.962,45.323,28.877,160.096
2010-07-01,1775.221,1476.369,30.567,60.147,90.395,466.455,65.272,125.871,22.515,50.598,34.043,27.69,219.702,89.642,85.464,91.138,102.704,73.125,53.058,51.289,460.33,46.167,28.674,161.662
2010-08-01,1785.985,1481.402,29.481,60.709,90.688,468.24,65.557,126.319,23.132,52.156,34.054,26.71,220.202,90.035,86.362,91.245,102.632,73.355,52.949,51.831,462.056,46.974,29.695,160.563
2010-09-01,1792.872,1488.511,29.42,61.315,91.981,470.756,66.029,126.243,23.445,53.784,34.133,26.683,220.022,89.043,86.427,88.977,105.891,73.683,53.1,53.167,464.502,47.339,30.7,158.147
2010-10-01,1804.121,1497.05,29.338,61.545,92.241,473.759,66.662,133.647,23.931,54.406,34.397,27.552,221.562,87.923,86.576,89.071,108.431,75.171,53.986,53.584,467.313,46.26,31.575,155.348
2010-11-01,1822.661,1506.421,30.712,61.954,93.428,478.193,67.2,134.534,24.127,54.874,34.477,27.693,227.47,87.612,87.684,92.972,108.345,76.575,54.878,54.747,472.01,46.154,32.091,147.372
2010-12-01,1850.472,1512.38,30.009,61.803,95.226,484.363,67.086,127.721,23.873,55.596,34.633,27.617,231.699,87.195,89.06,93.212,107.259,78.651,55.174,55.281,477.788,46.273,32.453,143.808
2011-01-01,1873.67,1503.525,29.402,61.192,94.661,487.731,67.001,125.096,23.805,56.089,34.703,27.719,234.582,87.574,90.854,109.591,109.522,80.268,55.273,56.617,475.042,45.437,31.124,137.192
2011-02-01,1872.207,1508.12,32.058,62.077,94.869,487.972,67.578,124.94,24.14,55.451,35.301,33.836,242.935,90.321,92.304,113.581,111.038,81.262,55.067,58.025,474.115,45.749,31.689,138.916
2011-03-01,1856.645,1513.423,33.439,63.276,95.698,487.921,68.491,128.19,24.549,52.995,35.993,35.588,250.801,93.086,92.102,111.041,110.478,81.951,54.919,58.738,478.836,46.352,32.004,146.212
2011-04-01,1850.097,1515.383,33.168,64.245,94.995,490.526,69.225,129.216,24.81,50.518,36.081,34.076,248.083,95.522,89.384,102.274,106.41,81.891,54.577,58.51,481.314,47.293,32.808,155.481
2011-05-01,1849.152,1519.64,32.702,66.138,93.944,491.808,69.377,130.601,25.149,51.307,36.418,32.491,235.614,96.928,87.757,95.883,107.684,81.366,54.72,57.949,482.327,48.042,33.243,163.636
2011-06-01,1853.35,1518.97,32.127,66.615,94.043,491.62,69.474,131.488,25.919,52.096,36.493,31.196,234.589,96.841,88.421,95.42,108.822,82.548,54.69,57.515,484.44,48.416,33.471,167.519
2011-07-01,1854.739,1524.781,30.943,66.697,93.587,493.086,69.603,132.348,26.128,52.485,36.432,29.358,235.106,97.613,88.623,95.388,108.829,82.089,54.423,56.594,484.298,48.498,34.399,167.016
2011-08-01,1863.093,1531.388,30.213,66.57,94.205,494.075,70.642,133.707,26.78,54.205,36.604,28.823,236.228,97.38,89.336,95.365,109.647,82.425,55.108,56.907,487.821,48.934,35.048,167.896
2011-09-01,1878.351,1532.169,30.163,66.187,94.459,496.541,70.755,133.243,26.718,55.708,36.689,28.341,234.76,96.314,89.36,95.347,110.9,82.551,54.796,58.405,488.52,48.37,35.669,164.336
2011-10-01,1884.408,1535.621,30.528,67.279,94.735,500.583,71.64,141.182,26.74,56.891,36.975,28.52,237.243,95.056,89.339,95.67,114.482,83.398,55.857,59.669,490.649,48.424,36.434,166.167
2011-11-01,1905.684,1543.905,31.392,66.967,95.532,504.183,72.267,142.591,26.771,57.471,36.879,28.429,239.946,95.641,90.388,98.301,115.576,85.184,56.14,60.038,495.203,47.848,36.972,157.262
2011-12-01,1920.996,1546.032,30.677,66.55,96.577,505.396,71.239,136.017,26.108,58.989,36.49,28.324,240.773,93.965,90.642,98.131,112.798,85.923,56.64,60.434,497.968,47.514,37.141,154.097
2012-01-01,1945.743,1534.103,30.054,65.476,95.244,504.916,70.699,133.255,25.834,58.937,35.867,28.641,240.942,93.031,91.6,110.05,112.739,86.291,56.886,61.388,493.457,46.742,34.73,149.328
2012-02-01,1936.715,1532.406,30.444,65.731,94.694,501.24,70.789,133.2,26.159,58.381,35.579,32.005,249.093,93.887,92.679,112.189,112.657,87.052,56.517,61.913,490.287,46.579,35.146,148.04
2012-03-01,1924.885,1537.417,31.203,66.89,94.94,499.672,71.102,133.778,25.967,54.652,35.615,33.009,258.377,96.087,92.842,110.2,109.959,89.114,56.9,62.505,493.335,47.038,36.096,150.789
2012-04-01,1904.162,1527.298,30.891,67.163,93.591,496.183,71.169,132.695,25.7,51.488,35.403,30.699,255.338,97.306,90.621,101.035,105.355,87.575,56.427,61.9,492.662,47.375,36.346,156.665
2012-05-01,1903.065,1525.237,30.533,68.082,93.275,494.767,70.844,134.162,25.706,51.713,35.554,29.858,240.547,98.524,88.966,96.927,106.539,86.759,56.168,61.187,492.007,47.419,36.726,168.052
2012-06-01,1897.415,1521.463,30.147,68.283,93.451,493.645,70.81,133.453,25.403,52.408,35.581,28.772,240.387,98.714,89.33,96.522,107.49,87.12,55.929,59.921,491.11,47.036,36.781,172.16
2012-07-01,1896.625,1521.281,29.956,68.1,93.213,492.676,70.908,133.182,24.984,52.642,35.338,28.209,239.582,98.664,90.298,96.67,107.628,86.948,55.708,59.078,488.642,47.729,37.283,171.533
2012-08-01,1899.763,1519.97,30.131,67.872,94.21,492.927,70.973,133.411,25.229,53.637,35.376,28.176,239.634,98.027,90.524,97.298,106.728,87.068,55.549,59.408,488.553,47.985,37.668,169.474
2012-09-01,1898.986,1517.928,30.306,67.315,94.327,493.204,70.937,133.307,25.205,55.497,35.28,27.968,238.136,96.004,90.698,96.272,109.065,87.267,55.154,59.876,487.664,47.874,38.354,166.176
2012-10-01,1910.205,1525.372,30.77,67.62,95.161,496.698,71.368,141.399,25.292,56.178,35.4,28.179,239.43,94.762,91.28,96.69,112.287,88.005,55.673,60.893,490.891,47.892,38.97,163.04
2012-11-01,1920.534,1527.307,31.528,67.535,95.903,499.957,71.77,141.222,25.317,57.108,35.972,28.433,242.807,96.213,92.513,99.396,112.072,89.411,55.896,60.714,492.746,47.984,39.526,155.271
2012-12-01,1943.766,1530.503,30.803,67.346,96.017,502.66,71.231,135.716,25.012,58.253,36.301,28.455,244.286,94.633,93.257,100.017,110.842,90.882,56.09,61.001,495.681,47.765,40.108,152.052
2013-01-01,1958.878,1524.331,30.531,66.27,95.08,504.907,70.755,133.728,24.902,57.939,36.42,28.831,245.472,95.217,96.087,113.021,111.577,91.115,55.956,61.531,493.575,47.223,38.344,147.831
2013-02-01,1952.564,1522.206,31.661,66.95,95.078,502.263,70.822,133.147,25.03,57.184,36.331,34.483,253.952,96.879,97.487,114.139,111.157,93.073,55.795,62.436,491.601,47.185,38.752,146.542
2013-03-01,1932.927,1525.058,32.203,67.749,94.629,501.697,71.081,133.367,25.143,53.652,36.435,35.765,262.792,99.363,97.639,111.461,109.374,94.78,56.234,62.482,494.817,48.563,39.424,152.972
2013-04-01,1925.175,1520.99,32.566,68.493,93.813,500.965,71.189,133.835,25.3,52.37,36.471,33.456,262.39,101.371,95.136,103.126,105.411,94.791,56.314,61.874,495.179,49.208,39.155,163.031
2013-05-01,1916.492,1516.106,32.365,69.454,93.347,499.424,70.936,133.767,25.453,52.807,36.516,31.715,242.911,102.498,93.717,100.223,105.763,92.464,56.066,61.04,496.232,49.276,39.362,167.454
2013-06-01,1908.564,1513.471,32.07,70.196,92.688,497.703,70.694,134.297,25.399,53.518,36.467,31.007,238.864,103.091,93.845,99.874,105.562,91.369,55.925,59.709,493.949,49.25,39.355,168.537
2013-07-01,1909.407,1517.973,31.825,71.002,93.198,499.359,70.772,134.608,25.787,53.837,36.444,30.54,239.009,103.62,96.067,101.006,106.327,90.636,56.163,59.3,493.372,49.427,39.737,168.565
2013-08-01,1920.657,1516.665,31.984,72.852,94.141,499.407,71.524,135.414,26.167,55.386,36.549,30.009,239.623,102.692,96.807,100.868,107.336,88.899,56.418,59.576,494.561,49.408,40.451,165.571
2013-09-01,1919.411,1516.173,31.379,72.698,94.669,500.396,71.229,135.003,26.101,56.467,36.265,29.527,238.411,100.78,96.616,100.074,109.478,87.349,56.481,60.175,493.458,49.306,40.865,163.529
2013-10-01,1925.68,1522.686,31.635,73.744,96.069,503.751,72.043,139.347,27.176,57.021,36.428,29.691,237.994,100.085,97.043,100.034,114.686,90.414,56.844,60.939,495.61,50.88,41.562,155.211
2013-11-01,1938.312,1524.897,31.81,74.268,96.695,504.199,72.154,139.45,27.836,58.419,36.323,29.397,239.631,100.906,98.965,101.513,115.866,87.023,57.396,61.358,498.986,50.726,41.77,153.708
2013-12-01,1951.86,1526.684,31.605,72.713,97.834,503.949,71.674,135.32,27.321,59.949,36.23,29.417,240.833,98.119,100.191,103.35,113.84,86.344,57.499,61.331,499.988,50.617,41.502,149.754
2014-01-01,1963.088,1520.216,30.795,71.522,97.526,506.399,71.341,133.787,27.253,59.625,35.638,29.241,240.85,96.94,103.614,114.099,116.66,84.525,58.358,61.27,496.389,50.478,38.439,145.694
2014-02-01,1955.415,1518.13,31.432,71.665,97.747,503.014,71.452,133.003,27.01,59.176,35.534,32.856,246.94,97.904,104.714,115.398,116.191,84.989,57.83,62.359,492.213,50.499,37.976,144.508
2014-03-01,1931.774,1518.245,31.639,71.662,96.968,497.417,71.338,133.354,27.009,55.732,35.714,33.299,255.73,100.243,104.731,112.043,115.062,87.854,57.417,62.33,492.999,50.883,38.477,145.133
2014-04-01,1922.575,1513.177,32.11,72.212,96.258,495.044,71.495,133.712,26.983,52.485,35.652,31.993,255.18,102.612,102.326,105.131,109.401,82.871,57.01,62.162,494.098,52.606,38.444,150.903
2014-05-01,1918.079,1509.086,32.316,73.123,96.243,494.436,71.633,134.15,27.131,52.55,35.612,30.502,238.819,104.013,101.329,101.8,110.679,81.434,57.02,61.979,494.608,52.148,38.211,159.891
2014-06-01,1913.297,1506.242,32.062,73.531,96.905,493.119,71.455,134.743,27.275,53.564,35.779,29.838,238.329,104.463,101.764,101.491,111.316,81.307,57.495,61.559,494.944,52.445,38.078,164.212
2014-07-01,1911.108,1508.356,31.939,73.605,97.13,493.778,71.324,134.383,27.242,54.13,35.827,29.368,238.665,105.095,103.574,103.068,111.628,80.968,57.249,61.164,494.356,52.989,38.485,165.064
2014-08-01,1909.306,1511.727,31.593,73.635,97.675,492.753,72.041,134.928,25.716,55.482,35.818,29.413,237.428,103.541,104.151,102.846,111.925,81.022,57.34,61.347,494.195,51.044,39.071,162.873
2014-09-01,1914.915,1515.832,31.246,73.678,98.683,492.781,72.816,136.806,25.897,57.323,35.989,29.31,237.054,102.138,104.442,102.527,116.886,81.061,57.601,62.094,494.365,51.039,39.622,162.931
2014-10-01,1925.788,1519.741,31.97,73.678,99.591,494.712,73.358,143.077,26.087,58.239,36.318,29.356,239.89,100.672,105.664,102.992,118.127,81.883,57.605,63.071,496.222,50.755,39.615,160.492
2014-11-01,1933.03,1522.607,32.534,73.512,100.614,494.798,73.221,141.784,26.172,59.61,36.435,29.293,241.583,101.178,107.697,105.083,118.605,82.201,58.063,62.786,498.41,50.379,39.683,155.968
2014-12-01,1948.808,1526.09,31.893,73.552,101.488,496.726,72.861,135.401,26.068,62.52,36.373,29.031,242.266,101.099,108.883,106.822,119.792,82.206,59.149,63.332,500.775,50.419,38.891,154.581
2015-01-01,1971.731,1521.882,31.597,72.492,101.254,501.853,72.671,134.654,25.665,62.947,36.156,29.942,245.154,100.652,112.035,116.243,119.477,82.787,60.046,62.986,497.826,50.129,36.839,150.162
2015-02-01,1966.511,1524.515,32.868,72.797,101.062,500.788,73.088,135.491,25.97,62.306,36.027,35.696,252.241,101.914,113.48,118.437,121.3,83.594,60.691,63.825,495.805,50.087,37.339,149.753
2015-03-01,1955.187,1534.379,33.235,73.662,101.301,498.91,74.567,135.422,26.572,58.28,36.318,36.645,259.308,105.355,114.172,115.118,120.554,84.161,61.355,64.137,499.868,50.526,37.84,151.89
2015-04-01,1953.302,1534.168,33.419,74.659,100.453,500.155,74.795,135.954,26.854,54.734,36.534,35.048,259.127,107.922,112.299,109.351,115.321,83.95,61.159,64.174,502.004,51.409,38.55,158.984
2015-05-01,1947.751,1530.232,32.994,76.272,99.709,498.753,75.264,136.325,27.232,54.41,36.745,33.193,243.458,110.031,110.802,106.597,114.925,82.202,61.577,63.843,500.822,51.181,38.97,164.367
2015-06-01,1951.893,1534.158,32.695,76.1,99.975,498.407,75.814,136.678,27.779,54.744,36.837,32.169,244.572,111.612,111.215,106.184,115.564,83.114,61.334,63.491,503.297,51.393,39.058,167.965
2015-07-01,1953.104,1537.961,32.1,76.488,100.207,500.338,76.542,137.015,28.254,54.959,37.077,31.294,244.073,111.938,112.59,106.929,114.429,81.714,61.31,63.168,501.415,51.414,39.69,169.398
2015-08-01,1956.404,1537.879,31.826,77.623,100.919,499.29,77.148,139.0,29.076,56.817,37.185,30.671,243.064,111.817,113.879,106.865,115.293,81.372,61.768,63.71,502.836,51.744,40.844,167.41
2015-09-01,1957.073,1539.514,31.561,77.878,101.152,501.676,77.444,139.563,28.985,57.478,37.172,29.756,242.266,109.002,113.529,106.123,119.206,80.912,61.703,64.284,502.169,51.25,41.755,166.108
2015-10-01,1968.033,1544.973,31.574,77.153,101.815,503.594,77.665,144.138,29.212,58.595,37.318,29.706,241.51,106.31,113.375,106.001,120.034,80.712,61.606,64.844,504.578,51.861,42.825,165.401
2015-11-01,1971.552,1545.494,31.676,76.728,101.841,504.707,77.238,143.227,28.966,59.293,37.485,29.489,243.642,105.226,114.441,107.652,120.54,80.559,60.842,64.747,505.831,51.681,43.099,160.804
2015-12-01,1974.969,1543.674,30.98,74.601,101.4,505.109,76.324,136.818,27.769,60.605,37.519,28.767,242.865,102.212,114.132,109.149,119.371,80.215,59.607,64.053,505.018,50.632,43.131,157.606
2016-01-01,1988.102,1536.964,30.303,72.786,100.727,508.385,75.968,133.955,27.063,60.953,37.551,28.734,243.049,99.785,114.695,113.808,118.517,80.015,59.305,63.298,501.057,50.136,39.034,153.14
2016-02-01,1981.548,1541.959,31.008,72.825,100.061,507.609,76.463,133.303,26.723,60.544,37.846,35.045,247.155,101.491,115.508,116.388,118.66,81.571,59.192,62.387,499.317,50.067,39.132,151.875
2016-03-01,1961.256,1548.814,31.076,73.364,99.799,505.51,76.151,133.128,26.795,57.268,38.177,36.103,252.741,104.799,114.446,113.488,117.597,81.869,59.437,61.152,502.329,50.899,39.137,155.997
2016-04-01,1945.543,1539.723,30.686,74.028,97.793,503.45,75.759,132.343,26.841,53.358,38.072,32.298,249.542,106.697,112.107,107.817,112.631,80.644,58.577,59.853,499.762,50.578,38.483,161.984
2016-05-01,1939.202,1531.536,30.231,74.673,96.061,501.863,75.778,133.305,26.894,52.82,37.978,30.703,236.951,107.186,110.528,104.049,111.491,79.785,57.983,59.025,499.184,49.946,37.795,167.634
2016-06-01,1931.585,1524.375,29.922,74.89,96.019,499.394,75.774,133.412,26.919,53.538,38.143,30.646,236.128,107.273,110.494,102.515,112.419,79.712,57.402,58.226,499.088,50.381,37.058,171.094
2016-07-01,1928.002,1528.047,29.838,74.811,96.237,499.222,75.606,133.422,26.861,53.812,38.051,28.776,237.523,107.134,111.112,103.458,112.533,79.349,56.508,58.035,497.589,50.44,37.05,171.873
2016-08-01,1932.48,1529.079,29.669,75.343,96.963,498.977,75.742,135.386,26.859,55.648,38.01,28.989,238.356,105.932,111.407,103.447,112.371,79.145,56.171,57.765,498.993,50.543,37.608,171.249
2016-09-01,1934.07,1529.312,29.802,75.437,97.165,498.518,76.39,137.623,26.935,57.335,37.926,28.842,238.197,103.104,110.99,103.267,116.562,79.186,56.163,57.811,499.301,50.349,37.876,168.857
2016-10-01,1939.823,1535.145,29.96,75.515,97.449,500.009,76.841,144.917,26.991,58.664,37.992,28.5,238.803,100.733,110.161,102.408,118.616,79.299,56.376,58.19,501.166,49.763,37.725,170.068
2016-11-01,1952.171,1539.636,30.265,75.976,98.307,503.531,77.013,143.188,26.927,59.407,38.241,28.64,241.689,100.762,111.29,104.48,119.119,79.703,56.637,58.18,504.005,49.851,37.537,163.202
2016-12-01,1961.623,1540.586,29.937,75.974,98.977,505.74,76.179,135.614,26.374,63.102,38.282,28.651,243.264,99.793,111.028,105.114,118.852,79.835,56.807,58.209,505.001,49.785,36.859,160.807
2017-01-01,1979.08,1535.726,30.572,75.403,98.384,510.085,75.782,134.356,25.553,63.395,37.837,29.659,244.218,99.088,112.412,113.175,120.099,80.064,57.22,59.093,502.374,49.646,36.074,155.127
2017-02-01,1969.381,1534.691,31.555,75.783,98.261,508.447,76.029,133.886,25.831,62.678,37.781,37.949,249.654,99.541,111.878,113.423,119.863,80.853,56.743,59.503,502.528,49.625,36.262,154.296
2017-03-01,1963.964,1547.595,32.37,76.384,98.138,506.179,76.579,134.578,26.023,60.38,37.85,38.006,255.68,102.54,111.232,110.708,119.293,81.813,57.065,59.439,506.59,50.358,36.393,158.902
2017-04-01,1949.682,1539.403,34.7,76.128,96.506,502.752,76.012,133.891,25.849,54.339,37.386,34.667,248.696,106.009,107.83,104.534,112.767,79.472,55.962,58.133,502.836,51.557,35.975,164.707
2017-05-01,1945.715,1538.549,32.714,77.159,95.874,505.04,76.839,134.925,26.229,54.629,37.574,33.505,240.154,109.757,107.161,101.616,111.764,79.051,56.01,57.784,506.235,51.605,35.881,172.39
2017-06-01,1945.45,1537.72,32.449,77.674,96.212,504.958,77.023,134.892,26.421,55.071,37.617,32.192,240.153,110.71,107.616,101.405,112.94,80.016,56.146,57.033,505.207,52.432,35.792,175.23
2017-07-01,1946.356,1543.029,32.211,78.056,96.254,506.813,77.193,134.558,26.708,55.052,37.7,30.745,240.531,110.096,108.791,101.831,114.627,79.416,56.001,56.717,504.064,52.989,36.128,175.312
2017-08-01,1948.643,1547.234,31.883,78.455,96.995,508.064,77.445,135.705,27.029,57.653,37.772,29.493,240.742,107.502,109.674,102.012,113.469,79.899,55.973,56.909,505.508,53.491,36.678,172.899
2017-09-01,1951.792,1545.67,31.36,78.278,97.473,510.16,78.036,139.296,26.939,59.512,37.462,29.028,239.553,102.514,109.905,101.196,117.205,80.737,55.721,57.247,507.134,53.852,37.126,173.279
2017-10-01,1964.207,1553.044,31.433,78.316,97.593,514.787,78.271,143.325,26.789,60.149,37.652,28.991,239.593,99.888,110.469,100.839,118.854,81.243,55.805,57.556,510.925,53.773,37.675,173.076
2017-11-01,1971.37,1558.776,31.672,78.653,97.878,518.441,78.249,140.552,26.76,62.412,37.685,29.224,243.827,100.445,112.877,103.357,119.758,81.987,55.713,57.555,513.58,53.835,38.099,168.478
2017-12-01,1978.995,1561.716,31.043,78.216,98.478,521.225,77.928,136.056,26.231,64.816,37.78,29.108,245.692,100.78,113.311,104.824,121.227,82.157,55.905,57.064,514.269,54.063,38.347,166.834
2018-01-01,1995.292,1555.938,30.769,76.818,97.742,525.623,77.902,133.968,26.418,65.068,37.544,28.834,245.737,100.135,116.612,111.811,120.738,82.61,56.121,57.843,510.552,53.548,37.545,163.334
2018-02-01,1985.292,1555.615,31.463,76.91,96.821,524.487,78.254,135.225,25.657,63.855,37.822,33.568,253.406,100.897,116.877,112.087,119.848,83.305,56.075,57.421,509.093,53.613,37.862,161.803
2018-03-01,1977.915,1563.947,31.432,77.678,96.556,522.799,79.079,135.356,25.998,60.037,38.243,34.014,259.652,105.472,117.129,109.999,118.795,83.799,56.193,57.203,511.719,54.812,38.225,165.655
2018-04-01,1964.174,1552.767,31.304,77.804,94.835,520.235,79.325,135.422,26.067,56.802,38.132,31.432,256.646,109.806,115.275,104.555,113.49,83.179,55.715,56.18,510.872,54.96,37.744,172.009
2018-05-01,1954.388,1551.671,30.895,77.901,93.604,517.813,79.109,134.704,26.28,57.467,38.255,30.315,243.793,111.338,114.765,101.279,113.362,81.766,55.205,55.885,510.053,54.465,37.619,178.119
2018-06-01,1941.223,1545.785,30.506,77.546,93.891,514.674,78.702,133.886,26.148,57.758,38.069,29.076,241.857,110.458,114.107,100.308,112.668,81.112,54.593,54.929,507.732,54.377,36.494,179.626
2018-07-01,1940.559,1545.078,30.304,76.654,94.307,514.689,78.138,134.534,25.962,57.753,37.91,28.612,243.183,109.755,114.854,101.369,113.083,80.67,53.949,54.64,505.74,54.493,36.457,181.191
2018-08-01,1937.137,1544.446,29.782,75.826,95.441,512.269,78.217,134.508,25.901,59.804,37.995,28.471,243.171,107.782,115.757,100.971,113.558,80.846,53.422,55.184,509.733,54.351,36.469,180.533
2018-09-01,1929.141,1538.239,29.221,74.707,96.222,509.636,78.363,134.755,25.415,61.346,37.597,28.115,241.253,102.503,115.273,99.905,115.938,80.501,53.105,55.083,506.787,53.994,36.339,176.409
2018-10-01,1931.94,1541.091,29.095,74.303,95.892,509.501,79.192,142.737,25.074,62.677,37.397,28.08,242.149,98.76,115.892,99.596,118.904,80.914,52.944,55.851,507.276,53.218,36.178,174.532
2018-11-01,1927.308,1536.244,29.186,73.815,94.782,509.491,78.608,141.303,25.078,64.944,37.276,27.805,244.702,98.397,117.995,101.5,119.767,80.84,52.766,55.967,505.765,52.752,36.057,169.088
2018-12-01,1928.421,1533.072,28.543,73.527,95.906,508.808,76.921,133.314,24.567,66.497,37.309,27.536,244.637,98.512,119.109,102.197,119.849,80.379,52.573,56.509,504.469,52.006,35.789,165.929
2019-01-01,1943.272,1526.966,28.712,72.393,96.329,512.345,75.552,131.828,24.063,65.834,36.895,27.933,245.334,97.929,121.163,110.276,119.925,80.69,53.328,57.889,501.087,51.619,35.039,161.622
2019-02-01,1936.914,1527.514,29.547,72.607,96.37,510.515,75.993,131.74,24.357,63.483,36.944,34.589,252.082,99.448,122.739,111.258,119.569,81.984,53.504,58.564,501.302,51.269,34.613,159.581
2019-03-01,1931.565,1529.285,29.238,72.514,95.91,503.301,76.923,132.02,24.416,59.17,36.71,33.071,256.409,103.481,122.885,109.067,117.313,82.065,52.992,57.981,501.132,52.129,34.195,162.274
2019-04-01,1913.045,1517.065,28.701,72.692,94.024,498.853,77.293,131.011,24.493,56.027,36.495,31.043,254.84,107.017,120.693,103.22,112.864,80.881,53.052,56.532,501.165,51.861,33.561,168.675